Location: *
(33.3200°N, 8.3381°W)
Time: 00:53:57
(UTC+00:00)

USA 186 - Pass Details

Date: 09 April 2020
Orbit: 261 x 446 km, 96.9° (Epoch: 04 June)

Event Time Altitude Azimuth Distance (km) Brightness Sun altitude
Rises 09:22:54 0° 353° (N) 1,970 5.0 39.0°
Reaches altitude 10° 09:25:08 10° 331° (NNW) 1,116 3.7 39.4°
Drops below altitude 10° 09:28:20 10° 243° (WSW) 1,077 3.6 40.0°
Enters shadow 10:01:03 -68° 183° (S) 12,205 8.8 46.3°
Exits shadow 10:27:46 -57° 31° (NNE) 11,180 8.5 51.1°
Maximum altitude 19:41:17 23° 74° (ENE) 970 3.1 -9.2°
